Tracking 31027 objects as of 19-Jul-2025
HD Live streaming from Space Station
objects crossing your sky now

SL-19 DEB

Track SL-19 DEB now!
10-day predictions


NORAD ID: 23482
Int'l Code: 1994-085E
Perigee: 1,676.9 km
Apogee: 2,349.7 km
Inclination: 64.7 °
Period: 127.3 minutes
Semi major axis: 8384 km
RCS: 0.2163 m2 (medium)
Launch date: December 26, 1994
Source: Commonwealth of Independent States (former USSR) (CIS)
Launch site: TYURATAM MISSILE AND SPACE COMPLEX (TTMTR)

Note: This is SATELLITE DEBRIS
Your satellite tracking list
THORAD DELTA 1 DEB
Track 1 satellite(s)




NASA's NSSDC Master Catalog

Two Line Element Set (TLE):
1 23482U 94085E   25199.33992207 -.00001469  00000-0 -33470-1 0  9996
2 23482  64.6930  62.1363 0401244 233.4168 311.5366 11.30850940258700
Source of the keplerian elements: AFSPC